ONEWEB-0673 (55832 NORAD) Tracking and Keplerian Element Data

This shows tracking and keplerian element data for the satellite.

Feedback or suggestion? Click here.




ElementValue
Catalog55832
NameONEWEB-0673
Epoch Orbit930
Epoch Day127.25001157
Epoch Year2023
RAAN175.3692
Inclination86.9764
Eccentricity0.0010846
Argument of Perigee33.8962
Mean Anonmoly148.2736
Mean Motion14.29682963
Decay Rate-0.01030319
L11 55832U 23029AN 23127.25001157 -.01030319 00000+0 -42971+0 0 9995
L22 55832 86.9764 175.3692 0010846 33.8962 148.2736 14.29682963 9301



Live tracking and technical data element details for ONEWEB-0673 (NORAD 55832). ONEWEB-0673 can be tracked NOW for your location showing map with azimuth and elevation plus other details from your city location.







IsCatalogInMostPopularTable: catalog: 55832, numindb: 6
Update: records affected: 1



GetName: 55832 ONEWEB-0673

Hit Count: updated at: Tue, 06 Jun 2023 02:33:18 GMT